#timestamp,LO_Frequency,Hit,StdDev 
1593655215.5,286047002.8,N
1593655235.4,286047000.3,N
1593655255.2,286046998.5,N
1593655275.0,286046998.7,N
1593655275.9,286046998.7,N
1593655295.8,286046998.3,N
1593655315.6,286046998.6,N
1593655335.5,286046998.3,N
1593655355.3,286047000.3,N
1593655375.1,286047002.7,N
1593655395.9,286047000.2,N
1593655415.7,286047005.4,Y
1593655435.6,286047003.1,P
1593655455.4,286047005.1,P
1593655475.2,286047007.4,P
1593655495.1,286047005.8,N
1593655496.0,286047005.8,N
1593655515.8,286047002.9,N
1593655535.6,286047002.1,N
1593655555.5,286047000.4,N
1593655575.3,286046999.3,N
1593655595.2,286046995.3,N
1593655615.9,286046997.6,N
1593655635.7,286046997.5,N
1593655655.6,286046995.1,N
1593655675.4,286046997.2,N
1593655695.2,286046997.1,N
1593655715.1,286046999.5,N
1593655716.0,286046999.5,N
1593655735.8,286046998.5,N
1593655755.7,286046997.1,N
1593655775.5,286046998.0,N
1593655795.3,286046997.6,N
1593655815.2,286046996.5,N
1593655835.0,286046997.8,N
1593655835.9,286046997.8,N
1593655855.8,286046996.9,N
1593655875.6,286046998.2,N
1593655895.4,286046998.5,N
1593655915.3,286047000.3,N
1593655935.1,286047002.7,N
1593655955.9,286047000.3,N
1593655975.7,286047000.1,N
1593655995.5,286046999.7,N
1593656015.4,286047002.0,N
1593656035.2,286046999.9,N
1593656055.0,286047000.2,N
1593656055.9,286047000.2,N
1593656075.8,286047002.6,N
1593656095.6,286046999.8,N
1593656115.5,286047001.2,N
1593656135.3,286047000.0,N
1593656155.1,286047000.4,N
1593656175.9,286047000.4,N
1593656195.7,286047001.1,N
1593656215.5,286047000.3,N
1593656235.4,286047000.6,N
1593656255.2,286047001.1,N
1593656275.1,286047000.0,N
1593656276.0,286047000.0,N
1593656295.8,286047000.2,N
1593656315.6,286047001.1,N
1593656335.5,286046998.3,N
1593656355.3,286046999.8,N
1593656375.2,286046998.3,N
1593656395.9,286046998.4,N
1593656415.7,286046998.3,N
1593656435.6,286046998.6,N
1593656455.4,286046998.6,N
1593656475.2,286047001.0,N
1593656495.1,286047000.0,N
1593656496.0,286047000.0,N
1593656515.8,286047000.4,N
1593656535.7,286047001.1,N
1593656555.5,286047000.2,N
1593656575.3,286047002.3,N
1593656595.2,286047003.7,Y
1593656615.0,286047005.2,P
1593656615.9,286047005.2,N
1593656635.8,286047006.2,N
1593656655.6,286047004.7,N
1593656675.4,286047006.8,Y
1593656695.3,286047003.9,P
1593656715.1,286047002.2,P
1593656735.8,286047003.2,P
1593656755.7,286047007.4,Y
1593656775.5,286047002.2,P
1593656795.4,286046998.5,N
1593656815.2,286046999.5,N
1593656835.0,286046999.0,N
1593656835.9,286046999.0,N
1593656855.8,286046999.3,N
1593656875.6,286046999.2,N
1593656895.5,286047000.0,N
1593656915.3,286047000.7,N
1593656935.1,286047000.3,N
1593656955.9,286047000.6,N
1593656975.7,286047000.7,N
1593656995.5,286046999.0,N
1593657015.4,286046997.3,N
1593657035.2,286046997.9,N
1593657055.1,286046996.2,N
1593657056.0,286046996.2,N
1593657075.8,286046991.7,Y
1593657095.6,286046997.4,P
1593657115.5,286046996.8,P
1593657135.3,286046994.9,P
1593657155.1,286046996.8,N
1593657175.9,286046995.6,Y
1593657195.7,286046997.6,P
1593657215.6,286046997.3,P
1593657235.4,286046995.4,P
1593657255.2,286046999.3,N
1593657275.1,286046995.7,Y
1593657276.0,286046995.7,P
1593657295.8,286046999.6,N
1593657315.7,286046997.6,N
1593657335.5,286046994.9,Y
1593657355.3,286046998.3,P
1593657375.2,286047001.6,P
1593657395.0,286047004.4,N
1593657395.9,286047004.4,N
1593657415.8,286047003.0,N
1593657435.6,286047005.8,N
1593657455.4,286047005.3,N
1593657475.3,286047002.9,N
1593657495.1,286047006.0,N
1593657515.9,286047004.7,N
1593657535.7,286047006.5,N
1593657555.5,286047010.3,Y
1593657575.4,286047005.7,P
1593657595.2,286047002.0,N
1593657615.1,286047000.7,N
1593657616.0,286047000.7,N
1593657635.8,286047000.2,N
1593657655.6,286047003.7,N
1593657675.5,286047005.6,N
1593657695.3,286047006.9,Y
1593657715.1,286047001.7,P
1593657735.9,286047005.7,P
1593657755.7,286047003.4,N
1593657775.6,286047001.4,N
1593657795.4,286047001.6,N
1593657815.2,286047001.4,N
1593657835.1,286047011.9,Y
1593657836.0,286047002.1,P
1593657855.8,286046996.5,P
1593657875.7,286046998.7,N
1593657895.5,286046996.2,N
1593657915.3,286046996.1,N
1593657935.2,286046995.9,N
1593657955.0,286046994.6,N
1593657955.9,286046994.6,N
1593657975.7,286046994.2,N
1593657995.6,286046996.0,N
1593658015.4,286046993.5,N
1593658035.3,286046993.1,N
1593658055.1,286046992.0,N
1593658056.0,286046992.0,N
1593658075.8,286046991.7,N
1593658095.7,286046993.0,N
1593658115.5,286046992.6,N
1593658135.3,286046992.8,N
1593658155.2,286046988.5,Y
1593658175.0,286046995.8,P
1593658175.9,286046995.8,P
1593658195.8,286046996.1,P
1593658215.6,286046995.6,Y
1593658235.4,286047000.7,P
1593658255.3,286047001.1,N
1593658275.1,286047000.3,N
1593658295.9,286046999.7,N
1593658315.7,286047004.4,N
1593658335.5,286047003.5,N
1593658355.4,286047004.2,N
1593658375.2,286047005.6,N
1593658395.0,286047005.4,N
1593658396.0,286047005.4,N
1593658415.8,286047004.5,N
1593658435.6,286047005.1,N
1593658455.5,286047004.8,N
1593658475.3,286047005.7,N
1593658495.1,286047005.5,N
1593658515.9,286047005.6,N
1593658535.7,286047002.1,N
1593658555.6,286047002.4,N
1593658575.4,286047002.1,N
1593658595.2,286047003.2,N
1593658615.1,286047004.9,N
1593658616.0,286047004.9,N
1593658635.8,286047004.7,N
1593658655.6,286047005.7,N
1593658675.5,286047004.6,N
1593658695.3,286047003.5,N
1593658715.2,286047005.1,N
1593658735.9,286047005.9,N
1593658755.7,286047007.2,Y
1593658775.6,286047001.6,P
1593658795.4,286047000.1,N
